Misión y Visión

La misión es proporcionar información fiable a la navegación aérea, contribuyendo a la seguridad, regularidad y eficiencia de la Navegación Aérea Internacional

La visión es contribuir sustancialmente al desarrollo de conocimientos y a la utilización de la meteorología aeronáutica a nivel nacional e internacional, mediante la innovación y la coparticipación con sectores sociales y productivos de la sociedad.

 
  Inicio
  Metar
  Taf
  Wintemp
  SIGMET
  Avisos
  Pronósticos
  Carpeta Meteorologica
  Imágenes Satelitales
  Climatología Aeronáutica
   
  ¿Quienes Somos?
  Contacto
  Eventos
  Publicaciones
  Politica de la Calidad
Taf

DIRECCIONES PARA INFORMES NACIONALES E INTERNACIONALES
(Metar /Speci - TAF)

http://adds.aviationweather.gov/tafs/index.php

http://www.ogimet.com/metars.phtml

PRONÓSTICOS DE AERÓDROMO

Cuando sea necesario, el encabezamiento abreviado puede incluir un cuarto grupo consistente en tres letras para identificar los boletines demorados (RRA), corregidos (CCA) o enmendados (AAA). Los boletines adicionales demorados, corregidos o enmendados deben identificarse con las letras RRB, RRC, etc.; CCB, CCC,etc.;AAB, AAC,etc.

 

DÍA 28/08/2014

 

TAF

MPTO

TAF MPTO 290500Z 2906/3006 00000KT 9999 FEW020 
PROB30 TEMPO 2919/2922 19007KT 6000 TSRA SCT014CB BKN080 
BECMG 2922/2924 FEW018 SCT090=

TAF

MPPA(MPHO)

TAF MPPA 290500Z 2906/3006 33004KT 9999 FEW018
PROB30 TEMPO 2919/2922 22008KT 6000 TSRA SCT014CB BKN080
BECMG 2922/2924 FEW018 SCT090=

TAF

MPMG

TAF MPMG 290500Z 2906/2918 31003KT 9999 FEW018 SCT090
PROB30 TEMPO 2917/2918 21006KT TSVCSH SCT016CB SCT080=

TAF MPDA 

 

TAF MPDA 290500Z 2906/2918 00000KT 9999 FEW018 BKN090 
PROB30 TEMPO 2910/2914 VRB02KT 7000 -TSRA SCT015CB BKN080 
BECMG 2914/2918 23005KT SCT018 SCT090= 

 
 











  Noticias AAC
  Directorio
  Contáctenos
  Historia
  Quejas y Sugerencias
  Etica y Transparencia

  Gestión SSP/SMS
  Seguridad Aérea
  Navegación Aérea
  Transporte Aéreo

  Tramites
  Áeronaves de Alquiler

  Meteorología
  I.S.F.P.A
  Notam
  Peligro Aviario
  AVSEC
  UPIA
  Permisos
 




DECLARACIÓN DE PRIVACIDAD